This demonstration page uses our WeatherBlox Daily Observations layout. Learn more.

Left ArrowRight Arrow

41.12389, -100.76542

Hourly Observations for July 6, 2022

Temp ( °F °C ) Dew Point ( °F °C ) Humidity (%) Winds ( mph kmh ) Pressure ( in mb ) Visibility ( mi km ) Precip ( " mm )
12:09 am 00:09 Cloudy with Nearby Thunderstorms 70 21.1 65 18.3 84 84 ENE 7 11 29.88 1012 10 16 0.03 0.76
12:24 am 00:24 Cloudy with Rain 71 21.7 67 19.4 87 87 ENE 10 17 29.87 1012 10 16 0.07 1.78
12:53 am 00:53 Mostly Cloudy with Light Rain 71 21.7 68 20 90 90 ENE 14 22 29.85 1011 10 16 0.13 3.30
1:53 am 01:53 Mostly Clear with Light Rain 71 21.7 68 20 90 90 NNE 13 20 29.87 1012 10 16 0.04 1.02
2:09 am 02:09 Mostly Cloudy with Light Rain 71 21.7 67 19.4 87 87 NE 16 26 29.84 1011 10 16 0.00 0.00
2:53 am 02:53 Partly Cloudy with Light Rain 70 21.1 66 18.9 87 87 NE 14 22 29.88 1012 10 16 0.00 0.00
3:53 am 03:53 Clear 69 20.6 65 18.3 87 87 E 13 20 29.87 1012 10 16 0.01 0.25
4:53 am 04:53 Clear 68 20 63 17.2 84 84 ESE 8 13 29.87 1012 10 16 0.00 0.00
5:53 am 05:53 Clear 67 19.4 63 17.2 87 87 ESE 9 15 29.89 1012 10 16 0.00 0.00
6:53 am 06:53 Sunny 66 18.9 63 17.2 90 90 Calm 29.90 1012 10 16 0.00 0.00
7:53 am 07:53 Sunny 69 20.6 64 17.8 84 84 Calm 29.93 1014 10 16 0.00 0.00
8:53 am 08:53 Sunny 71 21.7 64 17.8 79 79 Calm 29.97 1015 10 16 0.00 0.00
9:53 am 09:53 Sunny 76 24.4 66 18.9 72 72 WNW 5 7 29.96 1015 10 16 0.00 0.00
10:53 am 10:53 Sunny 77 25 65 18.3 66 66 NNE 6 9 29.96 1015 10 16 0.00 0.00
11:53 am 11:53 Sunny 80 26.7 65 18.3 60 60 NNE 8 13 29.96 1015 10 16 0.00 0.00
12:53 pm 12:53 Mostly Cloudy 82 27.8 64 17.8 55 55 E 8 13 29.95 1014 10 16 0.00 0.00
1:53 pm 13:53 Partly Cloudy 83 28.3 64 17.8 53 53 NE 8 13 29.95 1014 10 16 0.00 0.00
2:53 pm 14:53 Mostly Cloudy 85 29.4 65 18.3 51 51 ENE 9 15 29.94 1014 10 16 0.00 0.00
3:53 pm 15:53 Partly Cloudy 86 30 64 17.8 48 48 E 7 11 29.94 1014 10 16 0.00 0.00
4:53 pm 16:53 Mostly Cloudy 84 28.9 65 18.3 53 53 E 10 17 29.92 1013 10 16 0.00 0.00
5:53 pm 17:53 Mostly Cloudy 85 29.4 65 18.3 51 51 ENE 9 15 29.90 1013 10 16 0.00 0.00
6:53 pm 18:53 Mostly Cloudy 83 28.3 66 18.9 57 57 E 12 19 29.88 1012 10 16 0.00 0.00
7:53 pm 19:53 Sunny 81 27.2 69 20.6 67 67 ESE 8 13 29.89 1012 10 16 0.00 0.00
8:53 pm 20:53 Mostly Cloudy 80 26.7 68 20 67 67 SE 7 11 29.91 1013 10 16 0.00 0.00
9:53 pm 21:53 Partly Cloudy 76 24.4 68 20 77 77 ESE 5 7 29.92 1013 10 16 0.00 0.00
10:53 pm 22:53 Mostly Clear 73 22.8 68 20 84 84 ESE 6 9 29.92 1013 10 16 0.00 0.00
11:53 pm 23:53 Mostly Cloudy 72 22.2 68 20 87 87 ESE 6 9 29.91 1013 10 16 0.00 0.00

Powered by AerisWeather